SCP
0 0 0 0 0 0 0 0 0 0 0 0 0 0 0 0 0 0 0 0 0 0 0 0 0 1 1 1 1 0 0 0 0 0 0 0 0 0
0 0 0 0 0 0 0 0 0 0 0 0 0 0 0 0 0 0 0 0 0 0 0 0 0 0 0 1 1 0 0 0 0 0 0 0 0 0
0 0 0 0 0 0 0 0 0 0 0 0 0 0 0 0 0 0 0 0 0 0 0 0 0 0 0 0 0 0 0 0 0 0 0 0 0 0
0 0 0 0 0 0 0 0 0 0 0 0 0 0 0 0 0 0 0 0 0 0 0 0 0 0 0 0 0 0 0 0 0 0 0 0 0 0
0 0 0 0 0 0 0 0 0 0 0 0 0 0 0 0 0 0 0 0 0 0 0 0 0 0 0 0 0 0 0 0 0 0 0 0 0 0
0 0 0 0 0 0 0 0 0 0 0 0 0 0 0 0 0 0 0 0 0 0 0 0 0 0 0 0 0 0 0 0 0 0 0 0 0 0
0 0 0 0 0 0 0 0 0 0 0 0 0 0 0 0 0 0 0 0 0 0 0 0 0 0 0 0 0 0 0 0 0 0 0 0 0 0
0 0 0 0 0 0 0 0 0 0 0 0 0 0 0 0 0 0 0 0 0 0 0 0 0 0 0 0 0 0 0 0 0 0 0 0 0 0
0 0 0 0 0 0 0 0 0 0 0 0 0 0 0 0 0 0 0 0 0 0 0 0 0 0 0 0 0 0 0 0 0 0 0 0 0 0
0 0 0 0 0 0 0 0 0 0 0 0 0 0 0 0 0 0 0 0 0 0 0 0 0 0 0 0 0 0 0 0 0 0 0 0 0 0
0 0 0 0 0 0 0 0 0 0 0 0 0 0 0 0 0 0 0 0 0 0 0 0 0 0 0 0 0 0 0 0 0 0 0 0 0 0
0 0 0 0 0 0 0 0 0 0 0 0 0 0 0 0 0 0 0 0 0 0 0 0 0 0 0 0 0 0 0 0 0 0 0 0 0 0
0 0 -0 0 0 0 0 0 0 0 0 0 0 0 0 0 0 0 0 0 0 0 0 0 0 0 0 0 0 0 0 0 0 0 0 0 0 0
0 0 -0 0 0 0 0 0 0 0 0 0 0 0 0 0 0 0 0 0 0 0 0 0 0 0 0 0 0 0 0 0 0 0 0 0 0 0
-0 -0 -0 -0 0 0 0 0 0 0 0 0 0 0 0 0 0 0 0 0 0 0 0 0 0 0 0 0 0 0 0 0 0 0 0 0 0 0
0 -0 -0 -0 -0 0 0 0 0 0 0 0 0 0 0 0 0 0 0 0 0 0 0 0 0 0 0 0 0 0 0 0 0 0 0 0 0 0
0 0 0 0 0 0 0 0 0 0 0 0 0 0 0 0 0 0 0 0 0 0 0 0 0 0 0 0 0 0 0 0 0 0 0 0 0 0
0 0 0 0 0 0 0 0 0 0 0 0 0 0 0 0 0 0 0 0 0 0 0 0 0 0 0 0 0 0 0 0 0 0 0 0 0 0
0 0 0 0 0 0 0 0 0 0 0 0 0 0 0 0 0 0 0 0 0 0 0 0 0 0 0 0 0 0 0 0 0 0 0 0 0 0
0 0 0 0 0 0 0 0 0 0 0 0 0 0 0 0 0 0 0 0 0 0 0 0 0 0 0 0 0 0 0 0 0 0 0 0 0 0
0 0 0 0 0 0 0 0 0 0 0 0 0 0 0 0 0 0 0 0 0 0 0 0 0 0 0 0 0 0 0 0 0 0 0 0 0 0
0 0 0 0 0 0 0 0 0 0 0 0 0 0 0 0 0 0 0 0 0 0 0 0 0 0 0 0 0 0 0 0 0 0 0 0 0 0
0 0 0 0 0 0 0 0 0 0 0 0 0 0 0 0 0 0 0 0 0 0 0 0 0 0 0 0 0 0 0 0 0 0 0 0 0 0
Wind_Speed
3 3 2 3 3 3 3 3 3 3 3 4 3 3 3 4 7 7 8 14 18 19 19 19 18 17 17 17 17 16 16 16 15 15 16 16 16 16
2 3 3 3 3 3 3 3 4 4 4 3 3 3 3 4 7 7 8 14 18 19 19 19 19 18 18 17 16 16 15 15 15 15 16 15 15 15
4 3 4 4 3 2 2 3 3 4 5 4 3 3 4 4 4 5 5 6 8 17 18 19 18 18 18 18 17 16 16 16 16 16 17 16 15 15
5 4 5 4 3 3 2 3 3 4 4 5 3 3 4 4 4 5 5 6 6 12 18 19 18 18 18 18 18 17 17 17 16 16 17 18 17 16
5 4 5 4 4 3 3 3 3 3 3 3 3 2 3 2 3 4 4 4 5 8 14 17 18 18 18 18 18 18 18 18 17 17 17 17 17 17
5 5 5 4 4 4 3 3 3 3 2 3 3 3 3 2 2 3 3 4 5 5 7 10 13 17 18 19 19 19 19 19 18 18 17 17 17 17
6 5 5 6 6 4 3 3 3 2 2 3 3 3 3 2 3 3 4 3 4 4 4 5 6 8 10 15 18 20 19 20 19 19 18 18 18 18
5 6 6 6 6 7 7 5 4 4 3 3 4 4 5 4 3 3 3 3 3 3 5 5 6 7 8 8 14 18 20 21 20 20 20 19 19 18
4 4 4 5 6 4 6 5 5 6 6 4 5 6 5 5 4 4 4 4 5 3 4 5 5 7 6 8 15 18 20 21 21 21 21 20 20 19
4 4 4 4 5 5 3 3 3 4 4 4 4 5 5 4 5 5 4 4 3 2 4 4 4 5 5 6 13 18 20 21 21 21 21 21 20 20
4 4 4 4 8 7 3 4 4 4 4 5 5 6 7 8 6 3 3 4 4 3 4 4 3 3 4 6 9 16 18 19 20 21 22 21 20 19
4 4 6 6 8 7 3 3 5 5 4 5 5 5 4 5 6 5 4 4 3 3 4 4 3 3 3 3 5 8 11 15 19 20 21 21 21 13
3 4 4 9 9 9 6 4 7 6 5 4 4 4 3 3 3 3 4 5 5 4 4 4 3 3 3 2 2 5 7 7 10 12 18 21 22 16
4 4 5 10 11 11 7 7 9 7 3 3 4 4 3 3 3 3 4 5 5 6 5 5 4 5 4 3 3 3 5 6 8 9 9 15 17 17
4 7 9 11 11 7 7 9 7 3 3 3 4 4 3 3 3 2 3 3 4 5 5 6 5 5 5 4 4 4 4 5 7 8 9 10 10 10
4 6 9 9 7 7 7 5 3 3 3 4 4 4 3 3 3 3 3 2 3 3 4 5 6 6 5 4 4 5 5 6 7 8 8 8 8 9
2 2 2 3 4 4 4 4 3 3 3 3 3 3 3 3 3 2 2 2 3 3 3 2 2 3 4 5 4 5 5 4 6 8 8 8 8 9
2 2 3 3 4 4 5 4 4 4 4 3 3 3 3 3 4 3 2 3 4 4 3 3 3 2 1 2 4 5 6 5 6 7 7 7 8 8
1 3 4 4 5 5 5 4 5 5 4 4 4 4 4 4 3 4 3 3 4 4 3 3 4 4 5 4 3 5 6 6 6 6 7 6 7 9
2 4 5 5 5 5 5 5 5 5 4 4 4 4 4 4 4 4 4 4 4 3 3 4 5 5 6 4 3 3 6 6 7 7 5 3 2 4
4 4 5 5 5 5 6 5 5 5 5 4 4 5 4 4 5 5 4 5 5 4 5 5 4 5 2 3 2 2 3 6 6 6 7 5 4 4
6 6 6 7 6 6 6 6 5 5 5 4 5 5 4 5 6 6 5 5 5 5 5 3 2 3 3 4 4 4 3 3 3 4 7 7 7 8
7 7 7 7 7 7 7 8 8 7 7 7 7 6 5 5 5 6 6 6 5 6 5 3 3 3 4 4 4 4 5 5 4 4 2 2 4 4
Wind_Direction
298 284 266 256 241 228 214 199 203 240 258 249 245 241 224 216 218 212 212 212 212 214 214 211 209 208 208 208 209 208 207 205 202 199 199 200 197 193
305 301 287 271 263 240 223 217 210 215 244 248 238 253 245 237 224 216 220 216 213 213 214 212 209 208 207 206 205 204 202 200 198 196 196 196 195 191
325 313 298 287 273 260 240 225 219 213 241 258 242 246 240 243 235 224 222 219 216 214 214 213 210 209 207 206 204 202 199 197 197 195 194 193 192 190
318 316 307 306 290 271 252 239 230 219 224 252 257 241 238 237 230 227 227 221 217 215 213 214 212 210 208 207 204 200 198 195 193 193 194 193 192 190
305 303 299 300 292 284 267 250 242 239 222 235 255 245 246 239 234 235 228 224 220 220 216 216 214 212 210 208 204 200 197 194 192 192 193 193 191 191
303 295 292 284 272 271 268 258 249 247 239 240 252 253 249 242 219 228 233 221 222 217 217 215 215 215 212 209 205 201 197 194 193 192 192 191 189 189
314 307 300 301 294 279 271 252 243 242 241 239 250 254 248 233 225 216 229 227 224 205 206 210 207 213 213 214 210 206 200 196 194 193 190 188 186 185
312 314 311 316 326 328 315 287 251 237 237 234 241 245 249 239 232 226 221 217 231 203 197 216 203 213 211 209 209 206 202 198 194 191 189 186 184 182
308 314 323 332 337 327 321 316 296 280 252 235 242 244 244 234 224 231 226 221 225 201 188 222 207 219 212 211 205 202 201 198 194 191 188 186 184 181
304 304 306 314 320 324 321 324 312 296 277 258 244 249 249 245 227 228 228 235 250 220 187 215 205 215 207 207 204 201 199 197 194 191 189 186 183 181
305 307 308 304 315 329 327 317 314 307 300 291 274 266 263 258 239 223 221 222 235 222 196 205 204 205 210 212 206 201 199 195 192 191 190 186 182 179
304 307 311 311 313 325 309 292 295 294 302 309 303 298 283 274 252 225 218 223 224 227 200 193 191 180 215 218 204 200 201 199 193 190 188 184 178 177
290 298 301 314 315 317 309 275 273 283 289 290 292 291 288 275 255 238 224 217 221 231 201 182 191 187 194 202 209 201 197 197 197 194 189 182 177 177
260 273 286 304 310 309 302 287 292 293 284 288 290 289 284 274 259 249 238 229 227 231 212 193 198 195 191 193 203 198 195 190 188 191 188 180 179 179
251 269 286 299 309 306 297 298 302 291 280 281 282 280 273 270 272 267 258 247 242 236 224 215 207 197 198 199 187 181 181 193 187 182 180 181 181 177
263 286 297 300 298 289 296 300 285 262 257 265 272 275 280 279 272 263 257 250 251 251 224 213 210 199 203 199 191 191 181 181 182 182 177 178 178 180
248 294 308 317 320 314 306 295 288 284 269 261 265 274 278 277 276 270 254 250 246 241 228 211 208 206 206 191 193 198 190 187 181 176 174 179 184 185
181 273 288 291 291 294 297 297 288 275 268 265 267 265 268 271 279 278 263 258 261 246 228 205 188 188 194 237 202 193 193 193 182 176 171 180 188 188
252 282 287 289 288 287 283 279 278 272 265 260 261 261 259 261 265 269 267 263 261 254 233 206 198 202 212 221 216 196 190 183 176 180 181 178 189 189
305 296 299 297 294 292 289 285 282 281 270 260 258 258 253 254 259 260 259 256 257 251 242 218 211 213 217 209 192 200 191 180 180 183 178 156 133 147
349 332 322 317 312 307 300 293 288 283 277 268 262 258 253 249 254 253 252 253 251 247 243 239 224 198 170 144 162 188 189 189 179 176 168 158 153 159
3 357 352 349 343 337 333 329 321 316 311 299 286 275 263 251 253 253 248 245 243 243 246 237 183 172 186 202 205 187 174 164 164 163 166 164 168 181
13 8 5 3 0 358 357 357 360 359 354 343 331 315 296 277 263 255 249 244 242 240 235 223 198 198 206 207 203 190 177 170 160 157 170 186 184 176